Voltar ao catálogo

ASUSAT

AtivoRádio AmadorLEO
NORAD 26065·PAYLOAD·🇺🇸 United States

Lançado Jan 27, 2000 de Vandenberg Space Force Base

Loading…

Próximas Passagens (próximas 24 horas)

TLE

AtualizadoSource: Space-Track

Época: Sep 14, 2026, 08:13 UTC

1 26065U 00004E   26257.34246136  .00000089  00000-0  48333-4 0  9996
2 26065 100.2025 214.4603 0036320 140.3419 220.0429 14.38265358396379

Acompanhe ASUSAT em tempo real com AllMySat

Download on the App Store